McCook, NE

4:43 AM CDT on August 18, 2017 (GMT -0500)
McCook Municipal

Weather History for KMCK - November, 2013

Change the Weather History Date:

Sunday, November 17, 2013

  Actual Average Record
Temperature  
Mean Temperature 40 °F 37 °F  
Max Temperature 54 °F 51 °F 72 °F (1953)
Min Temperature 25 °F 23 °F -5 °F (2000)
Degree Days  
Heating Degree Days 26    
Moisture  
Dew Point 19 °F    
Average Humidity 42    
Maximum Humidity 68    
Minimum Humidity 21    
Precipitation  
Precipitation T in 0.03 in 1.57 in (2015)
Month to date precipitation 0.48 0.60  
Year to date precipitation 12.61 21.54  
Sea Level Pressure  
Sea Level Pressure 29.81 in    
Wind  
Wind Speed 17 mph (WNW)    
Max Wind Speed 39 mph    
Max Gust Speed 54 mph    
Visibility 10 miles    
Events      
T = Trace of Precipitation, MM = Missing Value Source: NWS Daily Summary

Daily Weather History Graph

Daily Weather History Graph

Search for Another Location

Airport or City:

Trip Planner

Search our weather history database for the weather conditions in past years. The results will help you decide how hot, cold, wet, or windy it might be!

Date:

Astronomy

Nov. 17, 2013 Rise Set
Actual Time 7:30 AM CST 5:23 PM CST
Civil Twilight 7:01 AM CST 5:53 PM CST
Nautical Twilight 6:28 AM CST 6:26 PM CST
Astronomical Twilight 5:56 AM CST 6:58 PM CST
Moon 5:42 PM CST (11/17) 7:26 AM CST (11/17)
Length of Visible Light 10h 51m
Length of Day
9h 53m
Full, 100% of the Moon is Illuminated
Nov 17
Full
Nov 25
Last Quarter
Dec 2
New
Dec 9
First Quarter
Dec 17
Full

Hourly Weather History & Observations

Time (CST) Temp. Windchill Dew Point Humidity Pressure Visibility Wind Dir Wind Speed Gust Speed Precip Events Conditions
12:53 AM 48.9 °F - 30.9 °F 50% 29.42 in 10.0 mi NW 16.1 mph 27.6 mph N/A   Overcast
1:53 AM 46.9 °F - 36.0 °F 66% 29.46 in 10.0 mi NW 12.7 mph - 0.00 in   Overcast
2:53 AM 46.0 °F 44.8 °F 34.0 °F 63% 29.46 in 10.0 mi WSW 3.5 mph - N/A   Scattered Clouds
3:53 AM 42.1 °F 36.1 °F 30.9 °F 65% 29.49 in 10.0 mi West 10.4 mph - N/A   Clear
4:53 AM 37.9 °F 32.1 °F 28.0 °F 68% 29.53 in 10.0 mi WSW 8.1 mph - N/A   Clear
5:53 AM 42.1 °F 35.2 °F 25.0 °F 51% 29.56 in 10.0 mi West 12.7 mph - N/A   Clear
6:53 AM 42.1 °F 34.2 °F 23.0 °F 47% 29.59 in 10.0 mi West 16.1 mph - N/A   Clear
7:53 AM 46.9 °F - 18.0 °F 32% 29.63 in 10.0 mi West 29.9 mph 39.1 mph N/A   Clear
8:53 AM 48.0 °F - 15.1 °F 27% 29.70 in 10.0 mi WNW 28.8 mph 41.4 mph N/A   Clear
9:53 AM 48.9 °F - 14.0 °F 25% 29.74 in 10.0 mi WNW 34.5 mph 46.0 mph N/A   Clear
10:53 AM 50.0 °F - 17.1 °F 27% 29.79 in 10.0 mi WNW 34.5 mph 54.1 mph N/A   Clear
11:53 AM 51.1 °F - 19.0 °F 28% 29.81 in 10.0 mi WNW 36.8 mph 50.6 mph N/A   Clear
12:53 PM 52.0 °F - 19.0 °F 27% 29.83 in 10.0 mi WNW 39.1 mph 47.2 mph N/A   Clear
1:53 PM 53.1 °F - 18.0 °F 25% 29.86 in 10.0 mi NW 28.8 mph 42.6 mph N/A   Clear
2:53 PM 53.1 °F - 18.0 °F 25% 29.88 in 10.0 mi NW 28.8 mph 38.0 mph N/A   Clear
3:53 PM 52.0 °F - 12.9 °F 21% 29.93 in 10.0 mi NW 28.8 mph 36.8 mph N/A   Clear
4:53 PM 50.0 °F - 12.9 °F 23% 29.99 in 10.0 mi NW 17.3 mph - N/A   Clear
5:53 PM 39.0 °F 33.4 °F 14.0 °F 36% 30.03 in 10.0 mi North 8.1 mph - N/A   Clear
6:53 PM 37.9 °F 32.7 °F 12.9 °F 36% 30.09 in 10.0 mi WNW 6.9 mph - N/A   Clear
7:53 PM 34.0 °F 27.2 °F 12.9 °F 42% 30.11 in 10.0 mi WSW 8.1 mph - N/A   Clear
8:53 PM 33.1 °F 26.1 °F 12.0 °F 42% 30.12 in 10.0 mi WSW 8.1 mph - N/A   Clear
9:53 PM 28.0 °F 24.2 °F 12.9 °F 53% 30.14 in 10.0 mi NW 3.5 mph - N/A   Clear
10:53 PM 25.0 °F 18.1 °F 14.0 °F 63% 30.17 in 10.0 mi SW 5.8 mph - N/A   Clear
11:53 PM 26.1 °F 17.6 °F 14.0 °F 60% 30.16 in 10.0 mi WSW 8.1 mph - N/A   Clear